Overview Statistics Trail Chart Weather Telemetry Raw packets
 

This is the latest recevied weather packets stored in our database for station/object W1CAT. If no packets are shown the sender has not sent any weather packets the latest 10 day(s).

<< 1 2 3 4 5 6 7 >>
Time Temp. Humidity Pressure Rain* Wind** Luminosity Snow
1788554000 30.56° C 23% - 0 mm - - -
1788553695 27.78° C 26% - 0 mm - - -
1788553391 28.33° C 26% - 0 mm - - -
1788553087 28.33° C 26% - 0 mm - - -
1788552781 30.56° C 25% - 0 mm - - -
1788552476 30.56° C 25% - 0 mm - - -
1788552170 30° C 24% - 0 mm - - -
1788551870 30° C 25% - 0 mm - - -
1788551568 27.78° C 26% - 0 mm - - -
1788551263 28.33° C 26% - 0 mm - - -
1788550962 27.78° C 26% - 0 mm - - -
1788550658 27.22° C 27% - 0 mm - - -
1788550354 27.22° C 27% - 0 mm - - -
1788550049 28.89° C 26% - 0 mm - - -
1788549744 29.44° C 26% - 0 mm - - -
1788549441 27.78° C 27% - 0 mm - - -
1788549137 27.22° C 27% - 0 mm - - -
1788548833 26.67° C 28% - 0 mm - - -
1788548529 27.78° C 26% - 0 mm - - -
1788548225 26.67° C 28% - 0 mm - - -
1788547920 26.67° C 28% - 0 mm - - -
1788547618 26.11° C 28% - 0 mm - - -
1788547314 26.11° C 30% - 0 mm - - -
1788547009 26.11° C 30% - 0 mm - - -
1788546703 27.78° C 28% - 0 mm - - -

* Rain latest hour (hover to see other rain measurements)
** Current wind speed in m/s (hover to see current wind gust speed)